Time,TemperatureF,DewpointF,PressureIn,WindDirection,WindDirectionDegrees,WindSpeedMPH,WindSpeedGustMPH,Humidity,HourlyPrecipIn,Conditions,Clouds,dailyrainin,SoftwareType,DateUTC
2013-03-23 00:00:00,40.9,33.2,30.02,ENE,61,0.0,1.0,74,0.00,OVC,,0.00,WeatherDisplay:10.37,2013-03-23 04:00:00,
2013-03-23 01:00:00,40.7,33.4,30.00,ENE,61,0.0,1.0,75,0.00,OVC,,0.00,WeatherDisplay:10.37,2013-03-23 05:00:00,
2013-03-23 02:00:00,40.4,35.3,29.99,ENE,61,0.0,2.0,82,0.00,-RA,,0.00,WeatherDisplay:10.37,2013-03-23 06:00:00,
2013-03-23 03:00:00,39.4,35.8,29.98,ENE,61,0.0,2.0,87,0.00,OVC,,0.00,WeatherDisplay:10.37,2013-03-23 07:00:00,
2013-03-23 04:00:00,39.6,36.6,29.96,ENE,61,0.0,1.0,89,0.00,OVC,,0.00,WeatherDisplay:10.37,2013-03-23 08:00:00,
2013-03-23 05:00:00,40.0,36.7,29.94,ENE,61,0.0,2.0,88,0.00,OVC,,0.00,WeatherDisplay:10.37,2013-03-23 09:00:00,
2013-03-23 06:00:00,39.9,37.7,29.95,SSE,168,0.0,3.0,92,0.03,-RA,,0.03,WeatherDisplay:10.37,2013-03-23 10:00:00,
2013-03-23 07:00:00,39.3,37.5,29.94,North,1,0.0,2.0,93,0.03,OVC,,0.06,WeatherDisplay:10.37,2013-03-23 11:00:00,
2013-03-23 08:00:00,39.0,37.1,29.96,North,1,0.0,0.0,93,0.00,-RA,,0.06,WeatherDisplay:10.37,2013-03-23 12:00:00,
2013-03-23 09:00:00,39.0,37.1,29.97,North,1,0.0,0.0,93,0.00,OVC,,0.06,WeatherDisplay:10.37,2013-03-23 13:00:00,
2013-03-23 10:00:00,39.4,37.6,29.97,North,1,0.0,0.0,93,0.00,OVC,,0.06,WeatherDisplay:10.37,2013-03-23 14:00:00,
2013-03-23 11:00:00,40.1,38.2,29.96,North,1,0.0,0.0,93,0.00,OVC,,0.06,WeatherDisplay:10.37,2013-03-23 15:00:00,
2013-03-23 12:00:00,44.3,43.5,29.95,North,9,0.0,2.0,97,0.00,OVC,,0.06,WeatherDisplay:10.37,2013-03-23 16:00:00,
2013-03-23 13:00:00,49.0,46.2,29.93,East,92,1.0,3.0,90,0.00,OVC,,0.06,WeatherDisplay:10.37,2013-03-23 17:00:00,
2013-03-23 14:00:00,52.2,47.2,29.91,North,351,2.0,3.0,83,0.00,OVC,,0.06,WeatherDisplay:10.37,2013-03-23 18:00:00,
2013-03-23 15:00:00,53.6,47.3,29.88,East,95,2.0,7.0,79,0.00,OVC,,0.06,WeatherDisplay:10.37,2013-03-23 19:00:00,
2013-03-23 16:00:00,55.5,48.7,29.84,ENE,77,1.0,5.0,78,0.00,OVC,,0.06,WeatherDisplay:10.37,2013-03-23 20:00:00,
2013-03-23 17:00:00,57.4,49.1,29.83,South,187,2.0,5.0,74,0.00,BKN,,0.06,WeatherDisplay:10.37,2013-03-23 21:00:00,
2013-03-23 18:00:00,56.9,49.4,29.81,SE,144,0.0,5.0,76,0.00,OVC,,0.06,WeatherDisplay:10.37,2013-03-23 22:00:00,
2013-03-23 19:00:00,56.5,49.4,29.82,SE,126,0.0,6.0,77,0.00,OVC,,0.06,WeatherDisplay:10.37,2013-03-23 23:00:00,
2013-03-23 20:00:00,54.5,49.4,29.79,SW,220,0.0,3.0,83,0.00,SCT,,0.06,WeatherDisplay:10.37,2013-03-24 00:00:00,
2013-03-23 21:00:00,51.3,47.8,29.78,SW,220,0.0,1.0,88,0.00,BKN,,0.06,WeatherDisplay:10.37,2013-03-24 01:00:00,
2013-03-23 22:00:00,47.6,45.1,29.79,SW,220,1.0,3.0,91,0.00,CLR,,0.06,WeatherDisplay:10.37,2013-03-24 02:00:00,
2013-03-23 23:00:00,45.2,43.6,29.74,SW,220,0.0,3.0,94,0.00,OVC,,0.06,WeatherDisplay:10.37,2013-03-24 03:00:00,